Theta_e
334 328 328 330 331 326 321 319 303 306 304 298 300 302 299 309 310 309 307 310 307 311 313 314 315 315 313 318 319 322 321 321 323 314 314 334 349 352 353 354 355 355 353 353 355 356 356 355 354 354 354 354 354 353 352 351 351 350 350 349 349 349 349 349 349 350 350 350 349 349 349 348 348 348 349 348 348 348 348 348 347 347 347 347 347 347 347 347 347 347 346 347 346 347 347 346 346
325 324 325 330 326 322 311 316 303 301 301 297 299 303 304 308 307 307 305 308 308 316 321 323 322 322 321 323 324 325 323 337 338 335 337 347 350 350 354 354 355 354 353 353 356 356 354 354 354 353 354 353 353 352 352 351 351 350 349 349 349 349 349 349 349 349 349 349 349 349 348 348 348 348 349 348 349 348 348 348 347 347 347 347 347 347 348 348 347 346 345 347 347 347 347 346 346
322 321 323 327 324 318 317 314 298 297 298 296 298 301 307 305 305 307 308 310 314 316 317 320 326 327 321 317 317 318 315 340 340 343 341 346 343 345 353 355 355 354 354 354 355 355 354 353 353 353 353 353 352 352 351 351 350 350 349 349 349 349 348 348 349 349 349 348 348 348 348 348 348 348 348 348 348 348 348 348 347 347 346 347 347 347 348 347 347 346 346 347 347 346 346 346 345
323 322 323 321 312 316 309 307 300 297 295 298 299 304 306 305 306 308 310 313 314 314 314 314 314 328 321 319 319 323 326 335 344 342 340 342 344 348 351 354 355 354 354 354 355 354 354 354 353 352 353 352 352 352 352 351 350 349 349 349 349 348 348 348 348 348 348 348 348 348 348 348 348 348 348 348 347 347 348 348 347 347 347 347 348 347 347 347 346 347 347 348 346 346 346 345 345
319 320 327 318 314 305 305 303 301 299 294 300 298 305 306 307 306 308 310 312 313 314 315 317 317 326 329 325 329 322 326 343 343 346 343 348 352 351 353 354 353 351 353 355 354 354 354 353 352 352 352 352 352 352 352 351 350 349 349 349 348 348 348 348 348 348 348 347 348 348 348 348 348 348 348 348 348 347 347 347 346 347 347 347 347 347 347 347 346 346 346 346 345 345 346 345 345
317 319 322 323 309 318 310 302 300 299 301 303 301 305 307 309 306 308 310 312 314 315 319 316 317 319 321 327 335 330 342 331 344 344 346 346 351 353 354 353 350 349 352 353 354 353 354 353 352 353 352 352 352 352 351 351 350 350 349 349 348 348 348 348 348 348 348 348 347 348 347 347 347 347 347 347 347 347 347 347 346 346 346 347 347 347 346 345 346 346 346 346 347 346 345 345 344
314 316 315 314 313 313 300 299 299 301 303 306 304 306 308 309 311 309 310 310 313 314 320 315 317 318 314 328 332 343 347 349 345 345 348 350 352 353 353 350 349 350 352 352 352 353 354 352 352 352 351 352 351 351 351 351 350 349 349 348 347 348 348 348 348 348 348 347 347 348 347 347 347 347 347 347 347 347 347 347 347 347 347 346 346 346 347 347 346 347 347 346 346 345 344 344 344
320 312 312 305 302 305 298 298 299 301 303 307 308 307 309 310 311 310 309 307 310 310 314 315 315 314 318 321 319 344 349 350 350 351 352 350 351 352 351 348 347 350 351 353 352 352 352 352 352 352 351 351 351 351 351 350 349 349 348 348 348 348 348 348 348 348 348 347 347 347 347 347 346 346 346 347 347 348 347 347 347 347 347 347 347 347 347 347 347 347 346 346 345 345 344 344 344
313 312 317 307 300 303 300 297 299 304 306 308 308 310 311 311 311 310 308 310 311 312 312 313 315 311 319 319 321 339 344 350 351 351 351 350 350 350 350 347 349 349 351 352 352 353 354 352 351 352 351 351 351 351 351 350 349 349 348 348 348 348 348 348 348 348 347 347 347 347 347 346 346 347 347 347 347 348 347 347 347 348 348 348 347 348 348 347 346 346 346 345 345 344 344 344 343
310 309 305 300 302 296 299 299 298 302 303 308 307 308 309 310 310 311 309 309 311 312 313 318 318 314 317 316 324 339 342 350 351 349 350 349 349 350 350 350 352 350 350 350 351 352 352 351 351 351 351 350 350 350 350 349 349 349 348 348 348 347 348 348 348 347 347 347 347 346 347 347 347 347 347 347 348 348 347 347 348 348 348 347 347 347 347 346 346 345 345 345 345 345 344 344 343
306 307 312 302 297 296 295 297 299 302 304 308 308 310 310 311 310 309 310 310 313 311 314 316 314 313 320 320 323 347 350 351 348 345 348 349 348 349 348 350 351 351 349 351 351 352 352 353 351 351 350 351 351 350 350 348 348 348 348 348 348 348 348 348 348 347 347 347 347 346 346 346 347 347 347 347 347 348 347 347 348 347 347 347 347 347 346 346 345 345 345 345 345 344 344 344 343
304 303 305 296 295 296 297 297 298 302 305 306 306 309 311 310 310 308 309 308 313 315 312 315 314 321 316 318 322 341 348 348 348 348 348 349 348 348 347 349 350 352 352 352 352 351 351 352 352 350 350 350 350 349 348 348 348 348 348 348 348 347 347 348 347 347 347 347 347 346 346 346 347 347 347 347 347 348 348 347 347 346 346 346 346 346 345 345 345 345 344 344 344 344 344 343 343
304 305 302 298 297 298 299 298 299 300 302 304 305 308 313 310 308 308 307 311 312 313 313 317 320 318 314 317 334 344 342 347 350 350 348 348 349 348 349 349 350 353 353 352 351 350 351 350 349 351 350 349 349 348 348 348 348 348 348 348 347 347 347 347 348 347 347 347 347 347 346 346 347 347 346 347 347 347 347 346 346 346 346 345 345 345 345 345 344 344 344 344 344 344 343 343 343
304 305 302 297 302 299 298 298 300 298 299 303 307 309 310 308 309 310 311 309 310 310 317 324 319 318 316 319 324 334 340 348 350 350 350 348 348 348 347 349 350 352 352 351 349 350 350 350 349 349 350 350 350 349 348 348 349 348 348 347 348 348 348 348 348 348 347 347 347 347 347 347 347 347 347 347 347 347 347 346 345 345 345 345 345 344 344 344 344 344 344 344 343 343 343 343 342
306 309 302 300 297 299 300 296 298 299 299 304 306 307 308 309 308 310 310 308 311 317 321 321 319 317 309 316 317 331 341 350 349 344 348 344 348 347 347 348 349 350 349 349 348 349 349 349 349 349 350 349 349 348 350 349 348 348 348 348 347 347 348 348 348 348 348 348 347 347 347 347 347 347 347 348 347 347 347 346 345 345 345 345 345 344 344 344 343 343 343 344 343 343 343 342 342
311 306 303 298 296 296 298 298 300 298 299 304 307 309 308 310 312 309 311 314 314 317 319 313 328 319 323 323 329 333 347 349 348 347 342 341 340 342 345 347 347 349 347 349 348 349 349 348 348 347 348 348 348 347 347 349 349 348 347 347 347 347 347 347 347 348 348 347 347 347 347 347 346 346 346 346 346 346 344 345 345 345 344 344 345 344 343 343 343 342 343 343 343 343 343 342 341
311 307 300 298 295 297 297 298 299 296 302 306 309 309 306 309 315 313 318 320 313 313 316 320 319 326 325 329 340 341 347 349 346 344 339 338 338 339 340 342 344 344 346 346 348 347 348 348 347 346 348 348 347 347 347 347 347 348 348 347 347 347 347 347 347 347 347 346 346 346 345 343 345 345 343 342 344 344 347 346 345 345 344 344 345 345 344 343 343 343 342 342 342 343 342 341 340
308 302 300 297 299 297 301 299 300 304 302 304 307 309 308 305 313 317 316 315 316 316 316 316 321 325 327 334 341 339 339 335 335 336 334 334 337 337 337 338 340 340 340 344 347 347 346 347 347 347 347 348 347 346 344 345 347 345 345 347 346 348 347 347 348 345 344 345 344 343 343 341 340 341 342 341 343 346 345 346 345 344 344 345 345 345 344 344 343 343 343 343 342 343 342 339 335
304 301 300 296 300 301 304 304 304 303 303 307 306 309 311 309 311 318 310 310 314 312 313 314 317 325 332 334 336 336 331 328 330 334 334 334 333 335 335 334 337 339 339 342 344 345 346 346 346 345 347 347 347 345 344 344 340 342 342 341 342 343 344 345 344 342 341 340 340 339 340 342 341 340 341 339 341 341 343 345 345 344 345 346 346 345 345 344 344 344 344 343 344 342 342 339 336
306 301 297 300 303 303 304 305 305 307 307 307 307 309 312 312 311 318 311 310 312 310 311 313 318 322 327 329 334 330 330 329 332 335 336 336 333 334 334 335 336 337 338 339 342 345 345 345 345 345 346 347 345 344 343 340 338 340 340 341 341 341 341 339 339 339 338 340 339 341 340 340 341 341 344 342 341 341 344 345 344 344 344 343 345 345 346 345 345 345 344 344 344 344 339 334 332
306 302 300 301 304 302 304 306 307 307 308 308 308 311 307 310 315 313 311 309 309 315 323 321 321 323 325 329 331 331 331 332 332 336 337 336 333 334 336 338 336 337 340 342 341 343 346 345 345 345 346 347 344 343 342 337 340 339 338 337 339 338 339 339 339 339 339 339 339 340 338 340 339 339 341 341 339 338 339 341 342 340 339 340 340 340 341 344 346 341 344 345 339 337 337 335 333
306 303 304 304 305 302 306 306 308 307 308 307 309 307 308 317 313 315 314 308 308 317 322 324 325 325 326 326 329 329 330 331 332 334 333 332 333 334 337 338 339 340 341 339 340 343 345 345 345 344 346 345 344 342 341 340 341 339 339 337 338 339 338 338 338 339 338 340 339 337 339 340 339 339 340 339 339 340 336 335 336 337 337 337 339 338 338 344 342 340 339 338 338 338 337 337 336
301 305 306 306 306 303 306 307 309 308 307 308 306 311 315 310 308 313 312 313 316 324 327 328 330 329 329 330 331 330 331 329 332 334 334 331 331 332 334 338 337 337 338 339 341 342 344 345 344 345 344 343 343 343 342 340 339 339 339 339 337 336 338 337 336 336 338 338 338 338 337 337 338 337 338 338 337 339 338 336 335 338 337 335 337 337 340 343 341 340 338 339 339 338 336 336 335
305 302 306 306 307 306 308 308 309 309 309 308 310 313 310 308 305 312 315 314 322 326 328 330 331 331 332 330 331 330 331 330 333 335 335 334 334 332 335 335 342 340 337 339 340 342 342 343 343 344 342 342 342 341 339 336 339 339 339 339 338 336 336 336 336 336 338 337 338 338 338 337 336 335 338 337 338 338 337 337 337 334 334 335 336 337 339 339 336 337 340 339 337 337 336 338 336
305 305 307 307 308 310 309 309 309 310 310 311 312 309 308 308 310 312 312 318 323 326 328 330 331 330 330 329 330 330 331 332 334 334 334 335 335 336 337 338 340 341 338 338 341 341 342 342 343 342 342 341 341 338 334 337 338 339 338 337 335 337 338 337 336 337 336 334 337 336 336 335 334 336 336 336 336 337 337 336 333 333 335 334 335 335 336 338 337 338 340 337 338 337 336 338 336
306 306 309 309 309 311 311 311 310 311 311 313 310 307 309 312 317 312 314 320 325 326 327 328 329 328 329 329 330 331 329 332 334 333 333 335 335 335 335 336 337 339 338 339 341 340 340 340 340 340 341 341 341 336 338 337 337 337 336 338 335 338 336 338 338 335 335 335 334 336 335 333 334 333 335 333 333 336 336 337 336 335 334 335 333 335 335 336 336 337 337 337 335 335 335 334 336
310 309 310 309 307 310 311 308 308 310 310 311 309 308 309 313 314 305 318 321 321 323 325 327 328 328 329 329 332 332 330 331 332 334 331 332 332 334 335 336 337 338 340 339 339 339 340 338 338 339 339 342 341 338 339 339 338 337 337 337 336 338 337 338 337 337 336 335 336 338 336 336 335 334 336 335 334 334 337 337 335 334 335 336 335 335 337 337 339 336 336 338 338 337 335 334 333
310 310 310 309 309 311 312 311 312 313 310 313 309 308 312 314 315 308 315 319 321 322 324 326 327 327 328 330 329 333 332 333 333 335 330 329 331 333 335 335 337 340 340 339 339 340 338 338 338 337 340 342 341 340 340 338 339 338 338 337 336 338 339 336 335 336 334 334 334 336 336 335 335 333 336 334 335 332 333 334 336 335 333 334 336 335 335 337 338 337 337 339 340 340 337 335 334
310 312 306 307 306 306 310 309 312 313 309 314 314 310 308 310 308 315 320 322 322 323 323 325 326 328 328 329 328 330 330 332 330 334 334 334 335 336 335 337 338 337 340 340 339 339 338 338 337 338 341 342 341 339 337 339 339 338 338 338 338 337 337 337 335 335 336 336 337 335 336 336 336 334 336 335 333 331 332 334 334 336 336 336 337 336 334 338 337 338 337 338 338 339 338 336 331
312 312 308 304 301 303 308 311 312 310 312 316 314 297 299 305 313 318 320 323 321 321 321 323 325 326 327 328 327 328 330 331 334 332 333 335 336 336 336 338 336 339 339 339 340 338 338 338 337 339 340 341 340 338 339 336 339 338 338 338 338 337 335 335 335 337 334 334 335 335 333 332 331 332 332 335 332 332 334 334 334 335 335 337 337 338 335 335 334 335 336 336 336 337 335 336 333
306 307 306 302 300 299 309 310 311 309 315 316 313 297 300 304 310 314 321 322 320 318 319 323 325 325 326 326 326 328 330 331 332 333 335 335 337 336 336 339 340 340 340 337 337 338 338 337 336 336 341 339 338 338 337 338 339 337 337 337 337 338 336 335 335 335 332 333 332 331 332 331 330 330 330 332 332 333 331 332 333 335 337 338 335 335 334 334 334 334 334 334 337 336 333 333 333
307 302 299 305 299 302 308 312 312 307 310 311 307 298 302 309 310 317 318 321 320 319 320 320 323 324 325 326 326 327 329 332 332 333 333 336 337 335 336 337 338 337 337 337 338 339 336 337 338 338 340 339 339 340 338 338 337 337 337 337 340 338 334 335 333 334 332 330 331 331 331 331 330 330 330 330 331 331 329 330 332 336 337 338 336 335 335 333 333 334 337 335 336 332 333 333 335
307 302 300 300 302 302 304 310 315 315 309 312 310 300 305 305 310 312 316 320 321 319 319 320 323 325 325 323 325 326 328 330 331 330 333 335 335 335 336 337 338 338 338 337 337 338 336 336 338 339 339 338 338 337 337 338 338 336 339 339 338 339 334 333 333 334 332 332 329 328 330 332 330 329 330 329 333 333 330 331 331 335 337 337 338 338 335 334 334 333 338 337 338 335 332 331 333
301 304 300 303 302 302 301 307 312 313 312 307 311 308 306 306 311 315 316 319 316 318 317 320 323 324 325 324 324 325 327 327 326 329 333 334 335 335 337 337 339 340 338 338 339 337 336 337 338 339 340 337 339 337 338 338 337 338 340 341 340 337 335 334 333 331 331 329 330 329 330 329 332 330 330 329 332 332 330 330 332 334 334 336 339 339 339 340 341 340 340 339 336 336 334 332 332
298 299 300 302 304 305 303 304 310 312 311 309 310 308 308 311 311 316 316 315 317 318 319 320 321 322 324 325 325 325 324 323 325 328 331 334 336 334 336 338 340 337 337 338 338 338 337 337 340 339 338 338 339 339 339 338 338 340 342 341 340 338 336 334 333 331 330 332 330 331 330 331 330 331 330 332 332 330 331 331 332 334 335 334 336 337 338 338 342 342 340 339 339 335 335 335 334
302 303 302 303 301 302 303 308 314 312 305 309 309 307 306 306 310 312 315 319 315 320 321 319 321 321 323 324 323 324 324 326 325 330 331 333 335 334 334 339 339 337 337 337 337 337 337 338 340 339 338 338 339 338 337 336 337 335 335 339 337 334 334 333 335 331 333 330 331 330 329 331 329 329 329 329 332 331 330 332 333 333 334 334 335 334 334 336 339 340 338 334 336 335 335 335 335
306 305 305 304 304 306 309 311 313 313 308 307 309 309 309 310 311 309 311 318 319 319 318 319 320 320 321 322 323 323 323 325 329 330 330 331 333 334 337 337 336 337 337 338 336 336 337 337 338 336 338 339 337 334 335 334 333 334 337 336 334 333 332 333 332 334 332 330 330 329 329 329 328 328 326 326 328 330 331 331 333 332 332 332 333 335 338 337 340 339 337 337 334 335 333 335 333
305 305 304 304 306 303 308 308 312 314 308 306 310 309 308 311 310 312 315 318 317 318 318 319 319 321 321 319 320 321 322 326 330 325 328 330 331 334 336 336 337 334 336 336 335 336 337 337 336 336 338 337 335 335 334 335 337 337 336 334 334 331 331 330 330 333 332 330 331 330 331 329 328 328 325 326 327 327 330 328 330 332 332 333 334 334 335 338 338 338 336 333 332 332 334 334 333
307 305 305 303 303 307 308 311 311 314 310 303 308 306 308 311 313 314 314 315 317 319 320 320 319 319 320 321 321 323 323 321 325 327 328 328 330 331 335 336 335 335 336 336 336 336 336 338 337 337 336 335 335 336 337 339 340 341 340 338 332 331 333 335 331 332 332 330 331 330 331 330 327 326 325 324 325 324 327 330 331 333 333 332 331 332 333 333 334 332 333 330 329 330 332 336 336
305 305 304 301 305 304 300 308 312 311 310 307 308 305 307 311 313 315 317 316 317 319 320 320 321 320 320 320 320 320 322 321 322 324 326 327 330 331 333 334 335 335 336 337 337 336 335 339 337 336 336 336 337 340 341 343 344 344 343 340 336 334 332 334 335 334 332 330 329 330 330 329 327 326 325 323 322 324 326 329 330 331 333 334 331 331 332 330 333 332 331 331 330 327 327 329 333
307 306 305 305 305 305 304 306 310 310 310 311 309 305 304 307 308 310 315 318 317 316 319 319 321 322 321 323 322 322 321 321 321 322 325 327 328 330 331 333 333 336 336 337 337 336 335 338 337 337 336 336 338 341 343 344 342 340 340 341 339 336 334 331 330 328 330 330 330 329 327 328 327 325 327 326 324 325 325 327 327 330 330 333 331 327 329 329 329 330 332 331 330 327 325 332 335
304 308 308 307 309 306 308 308 308 305 304 308 307 295 298 306 308 308 312 313 313 315 315 318 319 322 322 320 320 321 322 323 322 322 323 326 328 331 334 335 335 334 334 336 338 339 339 337 336 337 336 340 342 342 344 341 339 337 335 331 328 328 327 327 327 327 327 326 326 328 328 327 327 328 326 326 325 325 326 326 327 327 328 331 330 329 329 329 328 328 329 331 329 330 329 327 331
300 305 310 309 309 308 307 307 305 298 297 306 308 297 293 305 306 308 310 311 312 314 317 317 319 320 320 320 319 320 320 321 323 324 325 326 327 329 332 333 336 335 335 336 339 339 337 336 335 336 338 342 343 343 342 340 339 337 335 330 330 330 328 329 331 332 330 327 329 329 327 330 328 328 328 327 327 326 327 327 327 325 326 329 331 331 329 328 326 326 329 329 328 329 329 325 326
300 309 312 311 309 308 307 308 306 303 307 308 309 305 297 297 304 310 311 310 311 312 313 316 318 319 319 320 321 321 322 322 323 323 325 326 328 328 328 332 337 337 338 336 335 337 336 336 338 338 342 343 343 343 339 340 339 336 334 332 332 330 330 330 332 333 333 332 331 329 328 329 328 329 328 328 328 326 326 326 327 327 324 326 326 328 328 329 328 328 332 330 330 330 329 327 326
307 312 312 310 310 309 308 307 305 306 301 297 304 306 298 297 304 311 311 307 308 310 311 312 316 318 319 319 320 321 322 322 323 325 325 326 328 328 330 331 333 335 336 338 339 336 339 341 341 342 341 344 343 343 339 340 337 337 335 333 332 332 333 332 333 333 331 332 330 330 329 327 328 329 329 329 327 326 326 326 326 326 325 325 324 325 327 328 329 329 331 331 330 328 329 330 328
312 313 313 313 311 310 309 307 305 305 299 295 302 307 296 296 303 306 309 308 306 309 311 314 316 318 319 318 319 321 322 323 325 325 327 328 328 329 332 332 331 332 333 334 335 340 340 341 342 341 342 344 341 336 339 335 337 338 335 335 333 332 333 333 333 331 331 332 330 330 328 327 326 328 330 329 328 327 327 327 325 324 325 324 324 324 326 326 328 329 329 331 331 329 331 331 329
312 312 311 310 310 309 309 308 307 304 293 299 304 306 303 294 303 303 303 305 308 311 313 316 316 317 320 320 321 322 322 323 325 326 327 327 330 330 331 330 332 332 333 334 334 338 337 340 340 342 341 342 343 338 339 337 338 338 335 334 334 333 332 332 331 331 330 331 329 328 328 328 328 326 329 331 329 327 328 328 327 325 326 327 324 324 325 324 324 326 327 329 329 330 328 329 330
311 309 307 306 305 307 306 305 306 295 291 301 306 306 306 293 297 304 311 313 314 313 312 314 317 317 319 321 322 324 324 324 325 325 326 328 327 329 331 331 332 333 334 333 333 334 337 339 341 340 339 341 341 337 335 338 339 337 337 336 334 334 333 330 330 329 329 327 327 327 327 327 328 329 330 331 331 328 329 328 329 327 325 326 324 324 324 323 323 323 326 328 328 328 329 328 329
309 307 304 296 294 297 293 300 292 293 292 301 307 307 301 299 305 309 311 314 316 317 317 316 317 318 321 322 323 323 324 326 326 326 327 327 327 327 329 331 331 331 330 332 334 334 337 337 338 338 337 338 338 337 337 335 339 339 338 337 336 336 333 332 330 330 330 330 329 328 328 327 327 327 328 328 328 329 329 329 329 327 327 328 327 325 324 322 323 323 324 327 327 327 327 327 325
307 304 302 297 291 290 287 292 296 296 300 305 305 307 297 303 305 310 311 314 317 319 320 321 321 319 320 323 325 325 326 326 326 327 327 329 327 328 330 332 330 331 332 332 333 334 335 334 335 336 334 336 335 338 338 340 341 340 340 339 336 335 335 335 333 331 331 331 331 330 328 328 327 329 328 328 327 327 328 329 329 330 329 329 329 328 326 324 324 322 323 325 326 328 328 329 328
308 311 307 302 297 292 287 293 289 293 297 302 306 301 294 295 298 313 316 317 320 321 321 323 323 324 325 327 328 328 327 328 328 328 329 331 331 332 331 329 330 330 332 333 333 333 335 335 335 333 334 335 337 339 341 341 341 341 340 338 336 337 335 335 335 334 334 331 331 331 331 329 329 330 328 330 330 329 330 330 329 330 328 330 329 328 326 326 327 325 325 326 326 327 327 328 327
311 312 311 303 300 306 296 298 298 298 297 296 298 295 302 302 312 314 317 318 319 320 320 322 323 324 325 325 326 326 327 327 329 329 330 332 332 333 332 331 331 332 332 333 335 335 335 337 336 335 338 337 339 339 340 341 342 341 340 339 338 338 338 337 337 338 337 335 333 331 332 333 333 331 332 331 332 332 330 329 329 328 329 329 330 329 328 327 327 327 325 326 326 325 326 326 325
306 308 301 305 311 306 298 299 303 301 296 293 296 300 302 312 312 314 315 314 316 318 319 320 321 322 323 323 324 325 327 327 327 328 329 330 331 332 333 333 333 333 333 335 336 336 337 338 338 338 338 338 339 340 341 340 340 340 341 341 339 339 339 337 337 337 336 336 336 335 333 332 334 334 333 334 334 334 334 332 331 330 331 330 330 329 328 328 328 328 327 326 327 326 326 324 325
309 302 306 313 312 309 303 295 295 295 292 291 300 297 298 299 294 309 312 312 314 316 318 320 320 321 321 322 323 325 326 327 329 330 331 330 331 333 333 334 334 335 336 336 336 338 338 338 338 337 336 337 339 339 339 338 338 339 341 341 340 339 337 336 338 336 336 336 336 336 335 334 334 334 335 334 335 334 335 334 333 331 331 331 331 330 328 328 329 329 329 327 327 328 327 327 326
309 307 313 306 298 298 305 297 290 290 288 290 296 298 299 301 300 308 307 310 313 316 318 317 317 320 321 323 324 326 327 328 329 330 331 331 332 332 334 334 334 335 336 336 336 337 336 336 337 338 337 338 339 340 340 340 340 340 340 341 340 339 338 339 337 337 337 334 333 335 336 335 336 336 336 336 337 335 336 335 335 333 332 331 332 331 330 329 328 328 329 328 328 328 327 326 328
314 314 312 313 310 302 299 299 298 298 290 291 292 298 294 304 304 309 308 311 312 314 316 317 316 320 321 321 322 323 325 327 328 329 329 330 331 332 332 332 333 333 333 335 336 336 335 336 336 338 338 338 339 339 339 339 338 339 338 340 339 339 339 338 338 338 337 335 335 336 337 338 339 338 337 337 336 335 337 336 332 331 330 331 330 330 330 330 331 330 329 329 329 328 326 326 326
306 308 305 308 308 309 309 305 301 297 292 293 293 291 299 304 311 310 312 313 314 314 315 317 319 319 321 322 323 324 326 327 328 328 329 330 331 332 331 332 333 333 333 334 334 334 334 335 336 338 338 337 337 337 338 338 337 337 338 338 339 338 339 338 339 340 340 340 339 337 337 339 339 339 338 337 337 336 335 333 331 331 331 331 331 331 331 332 331 330 329 329 328 327 326 326 326
309 308 306 305 304 301 295 292 308 303 298 293 292 291 301 308 314 314 314 318 317 317 316 316 318 320 320 322 324 325 324 326 327 329 329 329 331 332 333 332 333 333 333 334 335 335 336 337 336 336 337 337 337 336 337 337 338 339 338 338 340 340 338 338 338 339 338 339 340 341 342 339 339 340 340 337 336 337 337 335 333 331 331 331 330 331 331 331 330 329 329 328 328 327 326 326 326
Wind_Speed
8 4 3 4 5 5 7 7 9 8 8 13 12 11 8 7 7 4 6 5 7 7 7 8 5 3 9 3 9 10 4 6 4 8 2 5 4 12 10 14 18 19 19 17 17 17 18 19 20 21 20 20 19 19 19 18 18 18 17 16 16 15 14 13 13 12 12 11 11 11 11 11 11 11 11 11 12 12 13 12 11 11 11 11 12 11 12 12 11 11 11 11 11 12 12 12 12
2 3 3 4 6 7 8 7 8 8 9 12 14 11 10 6 11 9 8 7 4 6 0 4 4 4 5 3 5 5 7 4 7 8 4 5 10 10 11 17 20 20 17 17 16 16 17 20 20 20 20 20 21 20 19 19 18 17 17 16 16 14 14 13 13 12 12 11 11 11 11 11 12 12 12 12 12 13 12 12 11 11 11 11 11 12 12 12 11 11 11 11 12 12 12 12 12
4 4 5 5 5 9 1 6 10 11 10 13 11 12 3 7 10 10 8 7 5 3 2 3 2 4 9 8 8 9 4 4 9 9 7 9 12 10 14 19 18 19 19 15 15 16 15 18 20 20 20 20 21 20 19 19 18 17 17 16 15 15 14 13 13 12 12 11 11 12 12 12 11 12 13 12 12 12 12 11 11 11 11 12 12 12 12 12 12 11 12 12 12 12 13 13 12
5 3 4 6 6 5 7 7 11 11 13 11 9 7 6 6 7 8 7 3 1 1 2 4 6 7 6 9 9 3 4 6 5 9 7 10 7 14 15 18 18 16 16 14 15 15 15 19 20 20 20 21 20 20 19 18 18 18 17 16 15 15 14 13 13 12 12 12 12 12 13 13 13 13 13 12 12 12 12 12 11 11 12 12 12 12 12 12 12 12 12 12 12 13 13 13 13
5 4 5 7 6 7 8 9 10 10 14 8 9 9 5 7 5 5 8 2 1 3 3 2 7 5 4 7 4 6 3 8 6 3 5 6 11 15 16 17 16 16 16 16 16 16 17 23 21 20 20 20 20 19 19 19 18 17 17 16 15 14 14 13 13 13 12 13 13 13 14 14 14 13 13 12 12 12 12 11 11 11 12 12 12 12 12 12 12 12 12 12 12 13 13 13 13
4 5 5 5 6 6 5 9 10 13 11 8 9 5 5 2 2 1 3 0 1 5 2 4 5 2 5 2 3 4 1 4 3 4 7 8 15 17 18 17 17 17 17 17 16 15 18 23 21 19 20 20 19 19 19 18 18 17 16 16 15 15 14 13 13 13 13 13 13 13 13 13 13 13 13 12 12 12 12 12 11 12 12 13 13 13 13 13 12 12 12 12 13 13 13 13 13
4 6 6 6 7 5 9 11 12 10 11 12 8 2 1 3 2 2 6 8 2 5 1 3 3 4 10 3 5 4 2 4 3 7 5 12 15 18 19 17 17 19 19 16 16 16 21 22 20 19 20 19 19 19 18 18 18 17 17 16 15 14 14 13 13 14 13 13 14 14 13 13 13 13 13 12 12 13 13 12 12 13 13 13 13 13 13 13 13 13 13 13 13 14 13 13 13
4 8 5 8 6 7 11 12 12 9 2 0 4 6 3 2 0 2 4 8 5 5 4 3 4 5 3 1 3 2 2 1 2 8 11 13 17 18 18 16 18 19 18 16 16 17 21 21 19 19 20 19 19 19 19 18 18 17 17 16 15 14 14 13 14 13 13 13 14 14 14 13 13 13 13 13 13 13 13 13 13 14 14 14 14 14 14 13 13 13 13 13 13 13 13 13 14
5 7 1 7 10 7 9 12 12 10 10 2 5 7 5 6 3 4 5 5 5 7 5 6 5 6 4 2 3 4 3 1 5 9 13 16 18 19 13 18 17 18 18 17 17 18 19 21 20 19 19 19 19 19 18 18 17 17 16 15 14 14 14 14 14 13 13 14 14 14 14 13 13 13 13 13 13 13 14 14 14 14 15 14 14 14 14 13 13 13 13 13 13 13 13 13 13
6 6 6 6 6 11 10 10 11 10 9 8 8 5 6 4 6 5 6 6 5 4 5 4 6 8 7 7 2 5 3 4 9 10 14 17 18 16 17 19 19 20 17 17 17 18 16 20 20 20 18 19 19 18 18 18 17 16 16 15 14 14 14 14 14 14 14 14 14 14 14 13 13 13 12 12 12 13 14 14 14 14 15 14 14 14 14 13 12 12 13 13 13 13 13 14 14
5 5 5 7 9 10 10 10 10 8 7 8 8 8 8 8 7 8 8 7 3 5 7 4 7 7 4 4 1 3 5 8 10 12 16 17 18 18 17 16 17 18 18 19 18 17 18 18 20 20 19 18 17 17 17 17 16 16 15 15 14 14 15 14 14 14 14 14 14 14 14 14 13 13 12 12 12 13 13 13 13 14 14 14 14 14 13 13 12 12 13 13 14 14 14 14 14
6 6 5 8 9 9 9 9 8 6 6 6 8 5 5 5 8 9 11 10 1 6 8 3 2 5 8 5 2 3 7 7 9 12 16 16 14 15 16 13 17 16 18 19 18 17 18 18 16 19 20 19 18 18 17 17 16 16 16 15 14 15 14 14 14 14 14 14 14 14 14 14 13 12 12 12 12 13 13 13 13 14 14 14 13 13 13 13 12 12 12 13 14 14 13 13 13
7 2 6 8 8 8 7 9 8 9 7 8 6 4 1 6 7 10 11 8 7 6 10 1 6 6 7 6 5 5 6 8 9 13 17 14 11 14 14 14 15 17 17 18 18 19 18 17 16 16 18 20 19 18 18 17 16 16 15 15 14 15 15 14 14 14 14 14 14 13 13 13 13 12 12 11 12 13 14 13 13 14 14 13 13 13 13 13 13 12 12 13 13 13 13 13 14
7 3 6 8 4 7 9 8 7 8 8 6 4 4 7 7 7 5 7 11 10 8 3 6 7 6 9 8 5 5 5 9 12 14 14 14 11 12 15 14 16 17 17 18 18 18 17 17 15 16 17 16 16 17 17 18 17 16 16 15 15 14 14 14 14 14 14 14 14 13 13 14 13 13 12 11 12 13 14 13 13 14 13 13 13 13 13 13 13 12 12 12 13 13 13 13 12
6 1 6 7 8 6 6 8 7 8 7 2 2 4 5 8 8 6 8 10 10 1 6 9 6 4 4 4 2 4 7 12 14 15 13 14 10 13 15 14 16 16 16 17 17 18 17 17 17 16 16 15 16 13 13 15 18 16 15 15 15 14 14 14 14 14 14 13 14 13 14 14 13 13 12 11 12 13 14 14 13 13 13 13 13 13 13 13 12 12 12 12 12 12 12 11 11
4 5 5 7 7 6 6 6 6 8 7 2 3 4 5 4 3 7 4 6 9 11 6 5 1 6 8 6 6 5 10 13 15 14 12 9 13 12 12 13 12 13 13 15 16 16 16 17 15 15 15 15 14 13 14 15 16 16 15 14 14 13 14 14 14 13 13 13 13 13 13 12 12 11 12 10 11 12 13 12 13 13 12 12 12 12 12 12 12 11 11 10 11 11 12 11 11
4 5 6 5 8 4 5 6 6 6 5 3 0 4 7 4 1 5 3 6 10 9 8 6 8 4 7 8 3 3 10 13 11 15 14 8 10 12 11 9 10 10 11 15 14 15 16 16 17 14 15 15 15 14 13 14 14 16 14 15 14 13 13 13 13 13 12 12 12 12 11 9 9 9 9 9 10 9 14 14 13 12 12 12 12 11 11 12 11 11 10 9 9 10 11 12 11
4 6 4 6 5 6 6 7 7 7 8 6 5 2 6 8 2 3 6 9 9 9 9 9 8 7 5 9 11 9 8 7 4 12 14 9 10 12 13 13 11 12 13 11 14 15 15 15 16 15 14 16 15 12 11 11 12 13 13 12 11 12 12 13 11 10 11 9 11 9 6 6 6 6 8 9 8 10 11 13 12 11 11 11 11 11 11 11 11 11 9 8 8 8 10 7 8
5 3 4 6 5 5 8 9 9 8 8 7 7 4 6 4 6 6 8 6 5 8 10 9 6 2 5 9 13 10 9 7 18 16 18 15 9 19 16 12 13 13 13 13 12 15 14 14 15 15 15 15 15 13 11 11 13 11 12 12 10 12 12 11 10 10 9 9 8 6 5 5 5 7 6 6 7 9 10 12 12 11 11 11 11 12 11 11 11 10 10 8 7 10 6 6 6
2 6 5 3 5 6 7 7 9 8 9 9 7 5 7 9 9 7 9 9 9 9 7 5 3 4 6 6 9 9 14 13 15 17 19 12 5 10 15 19 15 14 13 13 13 13 14 14 15 15 15 15 14 11 11 11 10 11 10 10 9 9 9 8 9 8 7 7 6 5 5 5 5 6 9 12 11 8 9 11 11 11 11 10 12 10 12 11 11 10 9 10 10 5 6 5 6
5 7 4 5 6 7 6 6 9 10 7 9 13 7 11 9 4 3 10 11 7 1 4 4 6 6 4 5 7 12 13 14 16 17 16 14 10 5 13 14 15 15 13 14 13 13 15 15 14 14 15 14 13 12 11 11 10 9 9 9 9 8 7 7 6 6 6 7 6 5 6 5 6 6 7 6 5 7 7 7 8 7 6 6 6 7 7 8 8 7 6 8 5 6 6 6 6
7 8 8 7 5 7 6 10 6 5 11 12 10 12 8 6 7 8 9 9 6 5 4 5 5 3 3 3 11 12 16 19 18 17 19 18 13 11 6 9 13 14 13 13 14 14 14 14 14 13 14 13 12 11 10 10 10 9 9 8 8 7 7 7 6 6 6 6 6 6 5 5 5 5 5 5 5 5 6 5 5 5 5 6 5 5 6 5 5 4 4 6 5 6 5 6 5
8 4 4 6 7 8 7 10 7 7 11 10 10 7 6 9 11 8 12 11 8 7 4 4 4 2 3 6 12 16 17 19 21 21 21 20 16 10 8 7 12 14 13 13 14 13 13 14 14 14 13 12 13 12 10 10 8 8 8 8 8 8 7 7 6 6 6 5 5 6 6 5 4 5 4 4 5 5 4 4 4 5 5 5 5 5 5 5 4 4 4 5 5 5 5 5 5
8 8 8 8 8 9 8 11 10 9 10 10 11 10 10 11 14 6 9 10 6 5 4 4 4 2 6 8 13 14 15 16 19 19 20 19 15 16 11 9 6 10 12 13 13 12 13 14 14 14 12 12 11 11 11 10 8 9 8 8 7 7 7 7 6 6 6 4 4 4 4 5 5 5 5 4 4 5 4 3 4 5 4 5 5 5 4 4 4 3 3 3 4 4 6 4 4
7 7 4 7 8 7 8 9 10 10 11 11 10 12 11 12 10 9 10 7 3 4 4 5 4 3 7 8 11 13 13 15 18 14 10 12 11 11 10 6 6 7 12 13 12 13 14 13 14 14 13 12 11 10 11 9 9 8 8 7 8 7 7 6 6 6 6 5 4 5 4 4 5 4 5 5 4 4 4 4 3 4 4 4 5 4 4 4 4 3 3 3 3 3 4 4 3
1 8 8 9 8 8 7 9 10 12 9 7 9 13 12 8 6 9 12 5 3 5 3 4 5 4 8 10 10 12 13 17 19 19 18 11 14 14 13 10 9 9 11 13 12 12 13 14 14 14 13 12 10 10 9 9 9 9 9 7 8 7 7 6 7 5 5 5 5 3 3 4 3 4 4 4 5 4 4 4 3 3 4 4 5 4 4 3 3 3 2 2 3 2 3 4 2
9 10 10 10 12 9 9 8 7 11 10 8 11 12 10 1 3 3 4 3 5 4 3 4 5 4 6 8 9 12 15 17 19 17 12 13 13 14 14 12 11 11 12 13 12 12 12 13 14 14 14 12 10 9 8 9 8 8 8 8 8 7 7 6 5 5 5 4 4 2 3 3 3 3 3 2 4 5 4 4 4 4 4 5 4 5 4 4 2 2 2 1 1 2 3 3 2
10 10 10 8 3 3 5 7 6 5 8 9 9 9 7 7 6 7 5 2 6 3 3 4 4 4 5 8 9 11 14 14 12 15 19 19 17 14 16 13 12 12 13 14 12 12 12 14 14 14 13 11 9 9 9 9 8 8 9 8 7 7 7 5 5 5 4 4 3 3 2 3 2 4 2 4 4 4 5 5 4 4 4 5 5 4 4 3 4 2 1 1 1 1 2 3 2
10 9 9 9 10 5 6 9 7 4 4 3 3 6 9 7 5 2 1 1 2 3 4 2 2 3 4 7 9 11 14 15 15 17 20 19 18 15 15 13 13 12 10 13 13 13 14 14 13 13 12 11 10 11 9 9 8 9 8 8 7 7 5 5 5 5 4 4 3 2 2 2 1 3 1 2 3 4 4 4 5 4 4 5 5 5 6 4 3 3 2 1 1 0 0 2 2
10 9 5 4 4 3 6 7 3 5 4 2 2 3 7 3 2 2 1 1 1 4 3 2 1 3 4 7 10 11 14 18 17 15 17 16 17 17 15 13 15 9 11 11 14 14 13 11 11 10 12 11 10 10 8 8 8 8 7 7 7 6 5 5 4 4 4 4 4 3 3 3 2 1 2 2 3 4 4 4 4 5 5 5 5 5 5 5 4 3 2 2 1 3 2 2 2
6 5 4 4 1 4 3 5 8 7 3 2 4 2 3 3 4 2 1 1 1 4 3 2 1 2 1 5 8 11 15 18 19 16 15 14 13 11 12 12 12 11 10 13 15 16 15 13 11 11 11 12 11 10 10 9 9 9 8 7 7 5 5 4 4 5 4 4 4 4 3 3 1 0 2 2 3 5 5 5 3 4 4 5 6 7 6 5 4 4 4 3 2 2 2 1 1
4 8 1 1 4 1 5 4 3 6 3 3 2 3 5 5 4 4 3 1 2 5 5 3 1 1 1 5 7 8 12 15 16 16 19 21 19 14 12 12 13 13 14 14 15 15 15 15 13 12 12 12 11 10 9 9 9 8 7 7 6 5 5 5 5 4 4 4 3 4 3 2 1 0 1 2 2 5 6 5 4 3 4 5 5 5 6 6 5 4 4 4 3 3 2 3 2
6 5 2 5 5 3 1 2 4 4 6 8 4 3 4 1 9 4 6 3 4 5 6 3 1 2 1 3 6 8 9 14 13 14 18 19 17 15 13 12 10 12 14 16 15 15 15 15 13 13 13 12 11 11 10 9 8 8 7 7 6 5 5 5 5 4 4 3 2 3 3 2 1 1 1 1 2 4 5 5 5 3 5 5 5 5 6 5 4 4 4 4 3 3 3 4 2
2 4 6 2 6 6 2 1 4 3 6 3 9 3 6 4 6 2 3 5 4 4 6 3 1 1 1 2 5 11 9 11 13 6 12 18 16 16 13 12 12 12 14 16 16 15 15 14 12 12 12 12 10 10 10 9 8 7 6 5 5 5 5 5 5 4 4 3 3 3 2 3 2 2 1 1 1 3 5 6 5 4 4 3 5 5 5 5 5 5 4 4 4 4 4 3 4
7 7 7 5 6 4 6 6 6 8 1 4 5 3 4 5 6 1 6 8 3 9 6 4 2 1 2 3 6 11 9 8 8 8 7 13 19 16 13 14 13 15 13 15 15 14 13 12 11 12 12 11 10 10 10 9 8 7 5 6 6 6 5 5 5 4 4 3 2 3 2 2 2 2 2 1 2 3 4 5 6 4 4 3 5 5 4 5 5 4 4 4 3 4 4 3 4
7 8 8 7 7 6 6 6 4 5 7 4 6 5 6 2 9 6 4 7 9 7 7 3 2 1 2 4 8 9 8 11 13 14 15 9 11 14 12 11 13 13 12 13 15 14 13 13 11 11 11 11 10 10 9 9 8 8 7 6 6 5 5 5 4 4 4 3 2 1 3 2 2 1 2 1 2 2 3 3 3 4 5 4 4 5 5 4 5 5 5 4 4 5 5 4 3
7 8 7 6 6 2 3 3 4 3 4 2 4 3 3 4 8 9 2 1 8 9 7 5 2 3 4 6 7 8 7 7 12 13 15 17 10 13 11 11 13 14 14 15 14 14 14 12 12 13 11 11 10 10 9 9 9 8 6 6 5 5 5 5 4 3 4 2 1 2 3 1 1 1 1 1 2 2 3 3 4 4 5 6 4 4 4 6 5 4 4 4 4 5 4 3 3
8 7 7 6 3 5 6 5 4 1 4 6 5 3 5 4 10 3 7 5 8 7 6 4 3 3 5 9 10 7 4 1 11 11 12 16 9 9 10 9 12 15 13 15 14 14 13 13 13 12 10 10 10 10 9 9 8 7 6 7 6 6 5 5 5 4 4 4 3 3 3 2 1 1 1 0 1 3 3 3 3 3 4 4 4 4 5 5 5 5 4 4 5 4 4 3 2
7 6 5 6 4 3 7 1 2 1 5 4 6 5 6 6 8 8 7 6 5 6 5 3 3 6 5 8 11 10 8 8 12 13 14 16 11 11 7 8 10 11 13 14 13 13 13 11 11 11 10 10 9 9 9 8 7 6 6 6 6 5 4 3 4 4 4 4 4 4 3 2 1 1 2 3 3 3 3 2 3 2 4 4 4 4 5 5 5 5 5 5 4 5 4 2 3
6 4 4 5 4 5 1 5 3 3 4 4 4 5 4 8 6 10 8 6 6 6 7 4 4 5 7 6 8 10 10 12 15 9 17 20 12 9 9 8 9 11 11 12 12 12 11 9 11 10 10 10 9 9 8 8 7 6 4 6 5 3 5 4 3 4 4 4 5 4 3 3 1 1 1 2 2 3 2 3 3 3 3 4 5 5 5 6 5 6 6 6 5 5 5 4 4
3 3 3 3 5 3 3 5 3 4 3 1 2 2 6 6 6 7 8 6 6 8 6 7 5 7 9 6 10 10 9 8 21 11 10 15 14 12 11 10 10 10 11 11 11 11 8 11 11 11 10 10 9 10 9 8 7 6 5 5 6 5 4 5 5 5 4 4 3 5 3 3 2 1 1 1 2 3 1 2 4 4 4 4 6 5 6 6 7 7 6 5 5 6 6 3 4
5 1 4 6 5 5 3 2 4 1 4 4 5 3 4 7 8 7 4 5 8 4 7 7 9 8 10 8 8 9 7 6 17 16 7 10 12 7 8 8 10 11 12 10 10 9 9 10 11 11 10 9 10 11 9 8 7 7 7 7 7 6 6 6 5 4 4 4 5 4 4 4 2 0 2 2 1 1 2 1 2 5 5 4 4 6 5 6 7 7 6 6 7 6 6 5 4
5 6 5 3 4 5 3 2 5 1 3 5 1 3 5 5 7 6 5 6 7 8 8 10 9 9 9 7 7 4 5 10 15 15 10 10 9 9 8 10 8 10 10 8 5 9 10 10 12 12 10 9 9 10 10 8 8 7 9 8 7 6 6 5 3 2 1 3 2 4 4 3 2 2 2 2 1 1 1 1 2 4 4 5 5 5 6 6 7 7 6 6 6 5 5 6 7
1 4 5 5 3 3 3 2 3 2 4 1 1 4 5 4 6 6 5 7 7 10 11 10 9 10 9 8 7 5 6 10 8 13 10 9 9 8 8 7 7 7 7 10 9 6 10 11 12 12 9 9 10 10 11 9 8 9 9 8 7 6 6 5 5 5 3 1 2 3 4 4 4 2 2 2 2 2 1 2 2 2 3 4 5 6 6 6 6 6 3 6 5 5 5 6 7
5 7 6 4 4 2 2 4 1 3 5 4 4 0 2 2 4 4 3 7 9 10 11 10 10 9 10 10 8 6 5 7 7 7 12 11 10 11 8 6 5 6 5 6 6 8 8 9 10 11 10 9 9 9 8 3 8 8 8 7 7 6 5 4 4 4 4 3 3 4 4 3 3 2 2 2 2 1 1 2 2 3 3 3 4 5 5 6 7 7 5 5 6 6 6 6 7
2 5 4 3 1 2 2 3 2 2 5 5 4 6 3 4 4 5 6 7 9 7 8 8 9 7 9 9 8 8 5 5 4 3 5 10 9 9 9 8 7 5 4 4 1 4 8 8 8 10 10 8 7 5 4 11 10 7 8 7 8 6 5 5 4 4 4 3 4 4 5 4 4 4 4 3 2 2 3 2 4 4 4 4 4 4 3 4 5 6 7 7 7 8 6 6 7
5 7 6 4 5 4 3 2 2 3 2 5 4 4 5 4 3 7 5 5 5 4 6 7 9 8 7 8 7 7 8 6 5 6 6 7 10 10 10 10 9 9 8 6 6 4 5 7 8 9 9 6 8 9 8 11 9 8 8 8 9 8 7 6 5 4 4 3 2 3 4 4 4 3 3 3 3 3 2 3 3 3 3 3 4 4 5 5 6 7 7 7 7 8 7 7 7
7 3 5 4 6 4 4 3 4 2 4 5 4 4 5 1 6 6 5 5 5 5 6 8 8 8 7 9 9 9 9 8 8 8 8 9 8 10 8 8 9 10 10 10 9 4 6 8 8 10 9 8 9 8 6 7 8 9 8 9 8 7 7 5 5 5 4 4 4 3 4 3 4 4 4 2 3 4 3 3 3 4 3 3 4 4 4 5 5 5 6 5 6 7 7 7 7
7 2 3 2 2 2 3 5 2 1 4 5 4 4 3 7 5 6 8 6 7 4 4 6 7 7 7 9 8 10 10 8 6 7 9 10 11 11 9 9 9 8 8 11 10 9 7 8 9 9 8 8 6 8 8 11 8 9 8 9 8 6 6 5 5 4 3 3 3 4 4 4 4 3 3 3 4 5 3 4 4 3 3 3 4 4 3 4 4 4 5 6 6 6 6 6 6
3 0 4 1 2 3 2 2 1 3 4 4 4 5 5 3 7 7 7 6 6 5 4 5 6 8 8 9 8 8 9 10 9 10 8 9 9 10 10 9 9 7 8 9 9 8 8 8 10 8 9 9 9 11 11 10 9 8 7 7 7 6 6 5 4 3 4 3 2 3 4 4 4 3 3 3 3 3 4 4 4 4 4 4 4 4 4 4 3 5 6 6 7 6 6 6 6
4 4 4 4 4 2 2 1 1 3 6 7 7 3 5 4 2 3 3 7 6 6 6 6 7 7 8 8 8 9 9 8 7 7 8 9 9 9 9 9 7 8 9 9 8 9 9 9 9 9 11 11 11 11 9 9 7 7 6 7 7 6 5 5 4 3 2 3 4 4 4 4 4 4 3 3 3 3 3 4 3 5 5 5 4 4 4 4 4 4 4 4 5 5 6 6 6
5 3 4 3 6 3 2 3 2 3 5 4 6 2 2 4 2 2 1 8 9 8 8 8 9 8 9 8 7 7 7 7 7 7 8 9 9 9 8 8 9 9 10 8 8 7 8 8 10 11 10 10 9 9 9 8 7 6 7 8 7 6 5 4 3 3 3 4 4 4 4 4 4 4 4 3 3 4 4 5 6 7 6 6 6 6 6 5 5 5 5 4 5 4 5 7 7
6 4 3 4 3 4 2 3 4 2 2 5 2 3 4 1 3 3 7 9 9 8 9 10 10 10 9 8 8 8 7 7 7 8 8 10 10 10 9 9 8 8 8 8 9 9 10 9 9 9 9 8 9 9 8 7 7 7 7 8 8 7 7 6 4 3 4 4 3 3 3 3 3 3 3 3 4 3 4 5 7 7 5 6 7 6 6 6 5 5 5 5 5 5 5 6 5
3 2 5 1 1 2 2 1 2 1 4 3 3 4 5 5 3 3 1 9 9 8 9 11 11 11 10 9 8 8 8 8 8 9 9 9 9 10 9 8 8 8 8 8 9 8 7 7 7 9 8 8 8 8 7 6 7 7 7 8 8 8 7 6 4 4 3 3 4 4 4 5 5 4 3 3 3 4 5 5 6 7 7 7 7 7 7 7 6 5 6 6 6 5 5 5 5
1 5 2 4 3 1 4 2 3 4 4 3 3 6 6 6 5 1 6 7 8 8 8 10 11 9 10 10 10 9 9 8 9 9 8 9 9 9 8 8 8 7 7 7 8 7 7 7 7 7 7 7 7 7 7 6 6 6 6 7 8 7 6 4 4 4 3 4 5 5 5 5 5 5 5 3 4 6 5 5 5 6 6 7 7 7 7 7 8 7 6 7 7 6 6 6 6
2 1 3 3 3 3 2 2 2 4 4 2 4 4 4 5 3 5 3 4 10 7 6 8 11 8 9 9 9 9 8 7 8 8 8 9 9 9 9 8 9 7 7 7 7 7 8 7 7 7 7 7 7 7 7 7 6 5 5 6 7 6 6 5 4 4 4 5 5 4 4 4 4 4 3 4 5 6 5 5 4 4 5 6 6 6 7 8 7 7 7 7 8 8 9 8 8
5 5 4 2 3 7 5 2 3 3 1 1 4 3 5 4 5 6 3 3 8 6 8 8 7 9 9 9 9 9 8 8 8 8 9 9 9 9 9 8 8 8 7 7 7 7 7 7 6 7 7 7 7 7 6 6 5 6 6 6 6 5 5 5 4 3 4 4 4 5 6 5 4 4 4 4 5 6 6 4 5 5 5 4 4 5 5 5 7 8 8 9 9 10 10 9 9
1 2 4 2 4 3 2 1 2 0 2 2 2 4 4 5 3 2 4 5 8 7 8 8 8 9 9 8 9 8 9 8 9 9 9 9 9 10 9 9 8 8 7 7 6 7 7 7 6 6 6 6 7 6 6 6 6 5 6 6 6 5 5 5 4 4 5 6 6 5 4 5 5 5 5 6 6 6 5 5 6 7 6 5 5 5 5 6 6 7 7 7 8 9 10 11 9
Wind_Direction
263 259 315 248 235 215 191 203 226 199 233 240 247 224 233 195 230 193 211 168 217 211 234 235 224 238 221 249 230 221 255 287 293 233 242 65 168 145 143 150 140 144 143 145 145 148 147 148 147 145 145 141 139 138 138 138 138 136 134 133 135 135 134 132 131 129 128 126 126 126 125 124 123 119 116 115 114 111 108 105 101 99 97 92 89 88 85 83 82 81 79 77 74 74 74 73 71
305 297 235 218 215 201 197 203 244 223 210 246 239 242 227 177 203 214 217 190 231 95 348 256 237 247 262 279 294 278 245 63 35 80 101 115 138 130 142 147 147 143 145 144 146 147 149 148 144 145 143 141 140 140 139 139 138 134 132 136 136 136 134 133 131 129 128 128 127 128 125 124 123 122 119 117 114 111 108 105 104 101 96 93 92 88 85 83 81 80 78 77 76 75 74 71 70
314 263 188 211 211 234 271 200 232 234 227 233 237 230 185 198 209 206 214 199 109 100 56 247 318 234 222 233 249 221 189 29 86 90 96 145 140 151 152 149 148 144 144 143 148 148 149 144 145 145 141 140 141 141 140 139 136 134 135 137 137 136 135 134 131 130 129 128 128 128 127 124 121 121 117 115 113 108 106 106 102 98 97 93 91 86 84 81 78 75 77 79 78 76 74 73 73
283 260 243 195 185 226 226 204 241 244 238 243 257 201 170 223 219 211 195 136 207 250 262 265 251 87 288 227 227 268 203 191 77 116 127 168 160 151 155 150 146 145 142 145 149 150 148 143 146 145 141 140 141 140 139 139 136 135 137 138 135 136 136 134 132 131 130 128 127 126 126 123 123 119 116 114 112 109 108 105 103 99 95 94 89 86 83 81 79 78 76 77 75 74 73 73 71
266 196 253 219 260 201 230 227 238 238 246 245 245 83 250 233 233 206 209 99 299 262 270 290 264 134 350 305 351 241 49 69 133 149 132 141 127 153 152 150 149 147 147 149 149 149 143 143 145 143 140 142 140 139 140 139 136 137 138 135 136 138 135 134 133 131 129 129 127 126 124 126 123 117 115 113 112 110 105 103 100 98 94 89 86 83 82 80 78 76 75 75 75 74 74 74 73
229 208 201 251 224 355 261 238 227 235 246 266 273 36 50 29 234 306 248 206 307 265 306 277 318 345 216 180 354 294 65 248 102 170 143 139 150 159 154 150 151 152 150 150 150 148 145 143 144 141 140 141 139 140 140 138 136 137 135 136 137 137 135 134 133 131 129 129 126 123 127 124 119 119 117 114 111 106 102 99 98 96 92 87 83 80 80 80 79 78 77 76 76 76 76 76 75
189 199 186 218 256 224 244 242 244 243 238 237 254 44 195 107 49 256 252 244 179 263 192 294 292 287 239 134 203 75 65 120 192 132 182 143 152 156 153 155 154 150 151 150 147 142 142 141 140 140 141 140 140 140 139 136 136 137 136 136 136 136 135 134 133 131 132 130 128 128 124 120 119 116 115 112 107 103 99 97 94 92 86 83 82 82 81 79 77 76 75 76 77 77 77 77 76
263 247 168 220 220 201 231 247 252 248 222 42 247 257 238 270 254 237 237 239 167 242 165 283 278 290 313 129 284 88 112 234 72 144 137 148 153 154 157 159 153 150 149 149 145 140 136 140 139 140 141 140 140 140 136 136 138 137 136 135 136 135 134 134 132 133 131 129 127 125 123 120 118 115 111 109 105 102 100 99 96 91 86 83 82 82 81 79 78 78 77 77 78 79 80 80 80
187 247 126 255 244 218 244 242 248 242 269 142 247 250 324 282 293 278 256 240 278 241 262 272 336 276 92 276 252 113 132 142 136 130 143 149 153 156 162 159 151 150 148 147 139 138 142 138 141 140 140 141 140 138 136 137 137 136 134 135 135 135 136 134 133 132 129 128 127 124 118 115 114 114 111 108 107 103 102 100 96 91 88 86 86 84 82 80 79 78 78 79 81 81 79 78 76
189 245 189 238 256 246 240 244 242 241 240 255 258 247 236 232 249 250 264 263 254 303 269 332 287 279 303 277 190 164 114 141 139 148 148 153 156 158 162 158 152 146 145 140 140 141 138 139 141 139 140 140 138 136 136 137 137 134 133 133 135 135 135 134 133 131 129 128 124 119 117 115 114 112 109 108 106 103 101 100 96 93 91 90 88 85 83 83 81 79 79 79 82 82 81 80 79
210 201 290 246 235 249 250 252 244 225 232 239 245 242 248 258 259 245 249 263 279 286 302 299 277 276 308 268 274 79 114 147 156 150 151 156 158 159 157 150 149 147 143 141 140 139 139 142 139 140 138 138 135 133 136 137 134 132 131 133 134 135 136 133 131 130 128 126 122 120 119 116 114 111 108 108 106 103 102 100 98 95 94 92 90 88 87 86 84 82 81 82 83 84 82 80 80
240 220 194 242 246 251 253 261 264 260 254 264 255 242 229 258 256 257 235 241 237 280 271 315 295 353 289 286 213 133 135 160 154 152 153 153 160 153 147 146 149 143 141 139 138 141 141 139 143 140 139 137 134 135 134 133 132 131 131 133 136 136 133 132 130 128 126 123 121 121 119 117 114 109 110 109 105 104 102 102 100 96 93 92 91 90 88 87 86 85 85 86 86 85 83 81 81
271 250 237 256 262 257 278 274 263 269 273 246 253 232 9 261 253 247 256 262 254 265 260 267 317 291 275 266 95 143 169 155 156 150 153 156 153 149 145 144 147 142 141 139 140 140 141 142 140 143 139 135 135 135 135 133 132 132 132 134 136 134 134 131 129 128 126 123 122 120 120 117 112 111 110 109 107 106 105 103 100 96 93 92 92 89 89 89 88 89 90 90 88 83 80 81 82
264 261 271 266 274 278 272 273 277 261 249 246 201 232 236 247 246 276 286 263 254 263 356 338 302 309 277 271 211 194 179 155 150 157 151 151 160 141 142 144 143 142 142 142 142 142 142 141 141 140 142 143 139 138 136 135 134 132 132 134 134 135 133 131 130 129 127 125 123 122 119 116 112 110 109 107 105 105 106 104 101 96 94 92 92 91 90 92 92 91 91 92 90 87 84 81 80
267 306 266 269 279 269 258 265 273 263 272 333 324 256 243 229 257 261 257 276 269 315 305 280 264 275 288 267 163 346 154 154 155 159 153 158 151 140 141 144 144 145 143 141 143 144 142 142 142 145 147 145 145 144 143 138 136 134 132 134 137 136 136 134 132 131 131 128 125 123 121 118 114 111 109 106 106 106 106 107 103 99 96 93 93 93 94 95 96 94 94 93 91 88 87 86 82
284 255 260 273 266 278 273 249 265 271 264 284 46 289 256 243 250 261 278 310 288 294 294 289 247 276 303 282 15 333 144 151 151 144 136 154 137 144 142 139 139 145 139 143 143 144 144 143 146 148 147 147 148 145 143 141 137 133 134 135 137 139 138 136 135 134 132 130 127 126 123 124 125 118 117 114 110 114 111 107 106 99 95 94 94 98 99 100 101 100 96 97 95 94 92 87 82
264 272 260 245 266 246 300 280 286 279 324 274 120 308 312 296 114 275 328 262 271 276 285 266 276 290 282 296 358 13 148 146 141 137 146 158 158 138 137 137 148 146 142 144 145 147 145 145 147 147 147 148 147 145 143 142 136 136 138 140 141 140 140 139 137 136 135 131 133 131 139 135 127 131 135 118 130 112 110 111 109 103 99 95 95 98 107 107 105 104 102 95 98 101 99 94 87
251 244 279 270 294 301 332 298 299 314 289 277 261 238 272 278 334 328 278 245 247 275 263 264 236 241 309 350 352 128 174 77 70 140 163 169 161 146 148 156 151 146 145 145 146 147 145 146 149 148 147 150 148 145 146 140 141 147 144 144 145 144 143 142 148 145 145 138 135 149 135 132 138 129 124 124 117 128 120 114 112 107 100 97 98 104 114 116 115 114 111 104 111 131 162 128 114
259 291 270 294 348 334 323 313 303 295 289 294 288 244 278 287 325 340 297 287 281 265 264 245 248 83 47 18 26 80 74 131 155 177 168 179 204 158 145 138 150 146 144 149 146 149 148 149 149 149 147 149 148 148 142 141 148 149 145 148 144 149 147 157 149 153 151 147 151 135 136 129 127 126 135 118 113 102 116 119 114 112 106 101 101 108 120 123 120 121 119 142 158 184 185 102 103
202 294 287 298 345 320 304 297 295 297 289 278 270 313 318 335 306 355 294 299 281 260 265 250 264 291 2 12 67 97 130 151 184 171 170 155 151 151 141 147 148 145 145 148 149 151 150 150 152 148 148 151 153 148 144 146 150 147 149 146 149 151 156 156 153 158 149 142 136 139 125 122 113 107 105 118 125 134 124 124 119 115 114 118 122 116 122 122 122 131 160 169 196 181 81 97 94
87 264 284 335 335 315 301 296 274 283 313 329 300 341 293 304 290 308 284 287 265 185 47 346 320 317 353 9 101 130 137 163 175 178 161 145 140 172 152 148 143 146 149 146 150 150 152 150 150 149 151 154 152 148 146 147 148 147 148 148 151 154 155 151 148 146 133 139 136 146 137 139 134 133 144 150 147 139 143 146 150 157 151 138 171 130 135 146 167 145 154 205 93 94 87 78 83
300 275 314 311 304 281 297 285 335 348 281 260 277 278 280 264 304 258 261 278 296 0 348 323 309 308 357 85 137 150 154 174 180 183 161 147 156 162 151 144 143 143 145 151 151 148 150 150 151 149 153 154 152 150 148 138 148 145 149 150 150 150 148 146 141 136 136 145 155 141 132 145 143 133 146 135 141 143 148 151 154 140 149 146 153 148 142 144 141 139 114 103 106 95 92 80 86
284 276 260 293 303 296 301 294 297 309 299 287 279 304 327 298 271 281 260 271 303 324 316 291 288 314 167 155 161 171 178 176 180 178 164 150 160 156 157 158 149 146 150 150 149 149 148 150 150 152 154 154 154 151 145 145 149 144 146 146 151 145 144 141 136 133 129 138 135 137 156 148 148 144 139 138 143 149 141 151 143 153 169 149 154 149 148 139 131 127 113 105 102 95 85 100 96
271 290 312 303 311 297 303 290 292 257 272 286 294 296 278 280 275 268 268 289 294 327 304 277 258 210 173 180 181 187 189 177 179 173 163 159 154 145 155 156 131 142 148 148 146 147 150 151 150 153 154 155 154 155 147 151 144 147 144 148 155 134 142 138 130 123 126 131 119 130 143 149 154 150 146 145 142 143 148 140 159 156 172 155 155 155 156 135 135 111 96 105 105 106 103 79 85
258 279 313 302 296 294 291 289 292 292 278 278 282 280 279 276 285 287 272 265 235 266 241 235 230 167 179 181 189 195 187 185 181 148 146 150 138 130 126 146 148 158 144 146 146 148 151 151 154 156 156 155 155 154 150 147 144 145 143 155 135 148 141 133 122 131 136 127 132 140 143 141 155 154 155 155 158 140 143 152 165 164 169 167 154 167 156 150 141 148 135 126 115 113 115 103 104
163 293 297 290 290 305 301 296 293 292 289 305 281 263 266 275 313 269 263 214 232 259 206 208 212 183 191 190 191 184 185 188 173 162 156 142 150 144 148 164 165 147 146 146 147 150 152 154 158 157 156 157 156 154 150 145 147 147 150 151 131 158 132 123 138 138 125 137 133 112 118 137 140 155 155 172 160 154 151 148 165 165 175 179 171 166 163 169 154 139 150 115 106 112 91 91 112
323 301 302 331 321 339 336 318 276 259 254 242 251 264 270 244 248 241 172 63 302 255 201 201 231 199 195 195 190 177 185 182 174 161 147 154 153 153 152 160 162 157 147 151 148 148 149 156 159 160 158 156 158 153 148 143 148 150 151 146 147 150 132 143 145 133 136 123 116 135 123 115 156 138 156 174 167 166 157 165 175 172 178 190 193 168 173 175 183 147 120 76 86 56 75 82 94
298 304 308 292 323 344 346 280 273 272 263 241 249 285 310 286 214 253 108 188 245 261 190 207 232 238 196 206 195 187 177 174 170 161 152 157 163 166 166 163 165 161 148 151 150 145 148 159 161 163 158 159 159 150 146 146 151 149 152 145 151 137 147 149 144 140 138 121 127 149 147 126 183 121 166 182 178 187 168 178 170 186 186 186 201 181 180 181 184 182 144 149 55 0 78 87 98
305 307 291 36 7 347 321 313 320 312 257 250 290 291 286 202 220 256 58 60 245 200 186 186 250 246 231 221 205 190 179 172 179 176 166 167 163 162 164 161 162 155 147 143 142 147 151 159 164 159 160 163 162 152 150 148 149 152 155 147 139 142 155 151 144 142 128 124 139 137 125 120 150 127 132 253 186 197 173 184 179 190 192 196 198 200 190 190 202 183 191 249 277 131 345 105 108
288 265 259 173 164 226 323 311 306 284 250 232 107 253 137 215 163 91 120 192 236 192 190 144 270 258 241 217 193 190 183 180 179 176 168 165 168 159 158 161 159 156 147 144 146 150 157 161 162 161 165 164 160 153 148 153 153 153 148 141 139 157 152 150 144 125 135 132 135 133 126 113 121 63 241 165 234 200 185 195 187 189 199 191 194 213 209 197 202 208 215 219 189 247 170 165 166
277 19 348 282 272 358 353 322 5 297 49 131 225 224 133 146 86 202 145 332 234 142 121 38 3 318 224 187 184 192 187 187 175 161 165 165 156 151 146 162 154 149 148 148 152 153 161 162 164 164 166 161 161 151 158 151 158 157 149 144 149 159 148 154 145 134 141 135 133 127 125 99 66 80 269 274 236 220 196 193 193 186 194 208 196 207 223 207 204 214 225 223 217 244 252 177 183
270 255 262 159 353 209 340 299 301 279 128 83 217 2 318 95 111 141 285 124 160 103 83 114 308 313 358 167 169 187 184 174 169 166 172 166 157 157 153 154 157 154 152 152 155 156 164 163 165 162 166 162 163 154 156 155 158 156 146 141 143 162 157 148 145 146 135 135 127 117 135 123 146 295 276 250 241 219 203 190 197 176 179 218 227 207 228 222 211 216 217 227 236 231 221 231 186
195 298 317 10 348 39 221 189 236 232 277 166 236 263 180 134 46 21 234 149 98 101 109 92 232 262 270 111 151 154 153 173 166 170 176 165 157 156 147 161 169 158 153 154 157 159 163 160 167 163 166 162 162 157 156 156 162 154 149 150 149 162 159 147 146 141 138 139 129 122 129 140 115 78 207 211 255 223 207 200 186 164 199 199 214 211 221 239 236 215 215 222 239 246 212 243 225
357 347 330 40 336 343 18 6 233 311 301 136 225 274 37 61 172 95 9 116 123 109 104 109 300 302 340 129 155 159 156 163 161 160 184 159 157 155 154 160 160 155 154 157 157 160 165 162 169 165 164 162 158 158 160 158 164 153 154 152 154 165 164 157 145 151 142 140 163 117 133 116 82 88 109 154 230 231 206 201 191 183 200 185 216 208 213 205 213 211 204 212 223 237 249 231 220
332 338 333 353 332 2 359 353 28 339 267 311 1 287 45 131 58 155 92 82 127 94 85 69 35 15 24 95 141 147 143 142 140 135 158 150 142 154 156 159 158 157 155 160 161 164 164 163 165 161 163 159 158 158 157 160 158 161 156 167 166 167 170 152 155 157 145 142 151 129 120 64 63 89 108 165 205 197 208 197 205 179 207 194 203 215 212 212 201 203 212 197 222 242 257 270 292
319 325 326 321 325 352 3 12 13 341 339 328 5 350 71 337 133 73 343 97 103 89 93 90 86 58 39 100 110 122 121 142 159 158 136 126 136 150 152 158 149 150 153 158 163 167 167 163 162 158 163 160 159 160 161 166 167 171 170 175 168 173 164 153 170 152 152 168 139 134 117 141 61 124 119 186 207 196 208 208 195 212 201 203 214 210 208 206 198 189 208 219 217 219 226 241 240
300 284 286 305 315 357 58 37 22 356 298 31 356 47 19 86 79 105 224 180 90 85 82 81 52 80 86 86 92 106 103 131 152 150 139 136 149 148 144 147 149 150 157 163 167 170 169 166 161 162 163 164 165 167 172 172 175 174 180 175 174 169 160 153 169 157 174 153 124 133 128 131 60 43 353 181 202 197 213 195 201 218 209 218 188 228 215 186 194 192 197 222 230 243 224 217 238
277 290 282 307 299 358 36 359 32 349 311 38 2 57 73 56 79 56 92 78 78 77 87 102 106 109 105 116 98 106 136 103 153 154 145 118 147 142 141 145 149 153 162 167 169 172 172 167 165 163 163 166 170 174 172 174 175 179 177 171 178 163 157 173 163 164 198 132 168 130 140 147 92 116 103 84 212 223 205 204 201 209 219 221 222 211 223 201 190 197 204 222 233 240 246 233 209
260 271 312 282 28 25 13 354 31 15 280 84 306 79 69 67 68 63 81 78 72 77 74 80 123 121 102 107 109 108 111 141 130 160 152 128 142 154 140 138 150 156 159 164 167 173 169 168 168 164 165 167 170 173 173 173 172 169 191 144 181 155 145 174 153 152 177 153 159 159 157 169 236 141 138 131 178 184 205 215 219 200 241 197 207 207 210 218 217 219 220 236 238 230 250 238 225
274 265 267 341 21 319 191 102 321 65 333 13 5 50 60 92 68 78 65 90 115 101 103 113 107 120 114 100 102 96 90 106 85 115 145 136 145 155 147 145 152 162 164 161 168 170 169 167 169 166 166 171 170 168 174 165 158 146 143 139 163 173 143 152 143 154 169 164 167 179 174 176 224 297 83 143 113 95 185 205 213 229 217 239 231 209 210 219 212 230 224 232 238 252 238 235 231
174 276 298 312 2 24 317 25 8 274 131 273 300 153 121 58 93 78 79 85 104 114 115 105 91 100 102 87 80 81 86 108 107 74 100 122 138 157 163 157 156 161 165 161 164 169 170 169 167 168 166 171 172 166 170 158 145 144 133 138 146 136 156 174 186 172 178 180 188 179 186 194 191 244 94 341 104 121 137 199 222 213 227 225 236 219 220 233 220 222 235 253 247 255 247 248 233
317 100 343 349 316 309 314 299 283 229 117 76 311 112 54 87 67 60 73 78 74 29 95 91 97 112 99 84 84 83 86 74 103 109 89 110 129 122 139 153 161 168 167 162 167 168 166 168 167 169 168 171 170 169 167 164 171 167 165 170 171 180 177 188 179 174 171 183 196 180 182 192 200 157 180 174 43 73 129 181 222 230 209 226 233 246 233 226 239 237 220 226 244 239 267 248 253
309 69 335 324 317 309 302 278 256 81 52 64 79 322 92 81 58 56 68 98 93 102 79 93 89 92 91 84 70 50 70 87 89 103 116 123 124 143 136 162 157 165 159 152 172 165 167 169 170 173 171 172 172 171 170 175 176 177 181 180 172 173 175 175 170 144 175 155 186 181 190 193 193 178 239 150 160 191 182 200 193 237 226 218 224 241 244 241 236 236 248 239 244 251 234 261 249
212 3 315 290 294 277 244 243 290 58 30 277 249 14 115 107 59 58 101 91 78 71 77 80 92 101 102 90 82 39 25 62 95 131 133 135 138 132 142 151 165 163 147 153 165 186 172 173 171 175 172 176 179 171 175 182 183 176 186 190 177 185 181 174 175 173 179 161 199 193 197 190 209 206 190 210 177 189 201 216 212 249 262 221 220 218 232 239 253 246 256 262 265 275 265 258 267
346 332 309 294 302 308 222 242 282 16 357 107 83 71 136 71 98 102 64 82 64 67 72 73 79 89 100 107 107 99 53 52 61 96 143 146 146 128 142 156 149 130 115 131 152 177 170 168 172 177 178 177 182 167 169 163 199 183 182 186 183 190 185 180 182 160 172 182 200 193 226 205 199 214 219 199 207 237 196 223 228 225 224 246 221 228 223 232 236 256 233 241 244 249 250 258 267
48 331 289 289 260 220 231 242 214 180 204 71 40 341 93 81 84 119 103 65 62 59 79 88 93 101 105 117 119 116 90 83 78 78 94 127 128 133 155 158 125 104 99 127 174 202 170 167 176 179 176 181 144 123 194 179 222 187 181 193 193 185 186 181 186 156 183 175 197 202 207 219 212 193 203 209 226 208 228 218 222 210 211 225 243 241 224 239 246 240 238 240 242 247 248 252 257
281 283 271 191 194 196 207 260 267 222 75 65 16 21 324 85 71 42 26 42 85 103 83 84 102 105 104 117 130 137 138 155 177 158 145 136 133 136 154 155 150 150 146 161 189 181 166 168 183 185 177 149 123 158 212 185 202 185 192 196 198 195 190 181 176 168 174 182 219 171 196 199 229 202 179 192 218 232 212 251 276 225 213 212 236 239 229 234 228 231 239 234 236 237 241 243 246
195 249 277 217 174 196 219 199 215 244 90 61 23 22 327 160 80 53 112 122 83 83 95 97 90 109 127 132 146 152 152 163 164 167 165 140 130 139 156 152 156 158 155 166 179 181 172 178 177 183 171 155 165 169 210 230 193 194 198 201 203 200 196 188 183 184 179 187 159 169 166 186 184 186 195 202 225 231 221 238 233 254 220 220 224 238 240 235 237 236 230 231 232 233 243 247 248
200 154 261 284 101 243 160 199 143 58 54 53 10 306 117 53 71 91 62 73 99 81 86 106 116 107 120 134 147 144 151 143 153 160 162 153 152 147 168 157 147 150 163 170 168 176 163 171 176 177 172 173 154 179 192 221 199 198 200 202 205 208 201 200 193 170 201 187 181 163 169 180 177 186 195 212 197 215 231 214 240 238 236 216 247 263 232 238 249 241 236 227 231 231 225 235 243
304 90 279 193 202 149 102 81 76 111 80 43 11 327 86 113 81 62 102 95 95 114 117 119 113 122 139 135 141 126 131 147 165 147 158 152 152 154 158 146 146 148 153 154 163 173 171 170 178 182 172 176 172 205 197 204 200 203 209 210 203 205 209 211 210 196 173 185 188 221 188 191 200 207 209 210 244 213 186 201 219 238 236 232 228 237 257 254 220 229 217 229 234 231 239 235 239
63 276 339 5 43 355 122 40 77 57 71 73 13 277 23 351 28 16 96 97 98 108 115 114 121 127 127 121 115 123 129 135 132 136 146 142 143 144 142 142 151 147 159 157 163 179 188 183 170 184 188 188 186 190 197 197 194 195 203 211 205 208 213 201 205 209 238 199 200 201 223 199 213 221 225 229 230 236 238 251 227 223 225 234 238 240 237 235 231 248 244 233 242 247 245 244 249
7 356 314 329 49 301 38 46 39 96 116 95 21 31 2 54 333 276 188 106 112 112 115 122 120 119 120 118 115 116 115 120 124 127 132 135 136 131 135 138 149 158 157 166 175 178 184 188 180 190 188 181 182 187 192 193 195 195 205 212 213 211 217 216 207 211 204 232 212 222 195 226 234 232 247 278 254 270 269 250 228 227 231 234 230 234 234 236 219 232 252 244 244 239 240 246 248
13 340 55 48 13 359 96 115 36 325 128 80 111 209 126 174 173 87 119 117 106 114 117 117 115 120 122 120 125 122 119 119 124 124 126 135 135 131 135 141 150 156 170 171 175 180 187 185 181 183 182 180 182 184 191 195 198 204 205 212 213 210 210 211 218 205 223 214 240 263 279 263 255 265 262 241 261 258 265 267 272 269 235 230 239 240 244 241 239 239 245 245 254 261 258 258 255
45 6 46 108 290 344 318 51 154 169 87 54 78 76 120 166 85 344 289 99 111 108 118 121 127 129 129 128 132 132 130 130 125 119 120 121 125 128 134 143 150 160 163 166 173 174 176 180 186 181 185 187 185 184 192 193 192 201 203 211 214 216 206 203 184 190 186 206 211 222 232 235 241 247 250 275 275 263 256 245 250 247 252 249 246 246 250 252 248 243 249 258 255 253 251 251 256
27 27 107 287 52 18 48 302 107 103 93 106 89 95 61 35 86 311 105 103 94 112 128 128 114 126 125 126 126 120 120 124 122 121 121 125 129 129 131 133 137 140 151 159 158 161 159 171 171 177 180 182 181 181 183 190 192 198 196 200 201 202 203 192 182 193 191 218 231 234 243 249 254 254 257 260 266 270 266 257 248 254 244 242 242 245 247 253 255 252 253 260 259 252 250 254 253
72 202 166 47 272 91 316 353 300 297 136 158 140 165 72 45 45 31 81 94 124 115 106 107 117 118 122 122 123 124 119 112 112 113 115 114 117 122 129 134 131 136 139 145 149 157 163 161 158 164 166 166 168 175 181 182 191 195 191 187 191 195 192 190 185 198 204 224 240 244 235 232 244 253 252 263 273 276 280 275 266 260 252 242 240 236 243 245 238 243 249 249 254 256 251 249 251
56 333 14 61 47 49 340 144 324 2 97 137 136 124 102 65 6 349 18 86 92 118 117 106 101 111 114 122 121 114 109 107 107 116 118 121 121 121 125 125 125 130 135 139 148 153 148 148 150 151 155 161 168 172 179 181 181 189 198 199 191 205 210 214 208 207 244 243 249 252 255 258 257 259 263 255 255 265 267 252 258 259 258 252 246 247 245 252 255 250 246 250 256 252 252 253 251
263 299 32 43 270 124 79 66 186 200 242 125 160 102 80 51 349 328 40 16 84 118 119 119 122 118 122 104 103 105 106 99 105 111 117 123 128 127 127 128 131 139 142 136 139 142 137 133 136 139 153 156 158 168 175 172 181 181 192 193 195 189 203 226 230 227 241 250 249 241 244 256 257 262 267 268 262 260 250 240 249 253 252 256 274 277 274 267 267 270 265 262 257 259 261 263 267